{"data":{"norad_id":53633,"intl_designator":"2022-104AX","name":"STARLINK-4593","alt_names":[],"object_type":"PAYLOAD","status":"ACTIVE","operator":null,"country":"US","launch_date":"2022-08-28","launch_site_code":"AFETR","launch_vehicle":null,"mission":null,"orbit_class":"UNKNOWN","rcs_meters":null,"size_class":null,"mass_kg":null,"dimensions":null,"purposes":["comms"],"wikipedia_slug":null,"has_3d_model":false,"image_url":null,"decayed_at":null,"tle_current":{"epoch":"2026-05-24T23:45:08.548128Z","epoch_age_seconds":69254,"freshness":"FRESH","line1":"1 53633U 22104AX  26144.98968227  .00008973  00000+0  58176-3 0  9993","line2":"2 53633  53.2135 241.6205 0001324  79.9246 280.1895 15.08800826207413","mean_motion":15.08800826,"eccentricity":0.0001324,"inclination_deg":53.2135,"raan_deg":241.6205,"arg_perigee_deg":79.9246,"mean_anomaly_deg":280.1895,"bstar":0.00058176,"rev_number":20741,"period_min":95.440032586515,"perigee_km":538.9471875837,"apogee_km":540.77907401834,"semimajor_km":6918.000130801,"source":"CELESTRAK","updated_at":"2026-05-25T13:38:17.482044Z"}}}